Regional Weather Roundup
Issued by NWS

Home | Current Version | Previous Version | Graphics & Text | Print | Product List | Glossary On
Versions: 1 2 3 4 5 6 7 8 9 10 11 12 13 14 15 16 17 18 19 20 21 22 23 24 25 26 27 28 29 30 31 32 33 34 35 36 37 38 39 40 41 42 43 44 45 46 47 48 49 50
000
ASUS43 KLOT 201106
RWRIL

ILLINOIS REGIONAL WEATHER ROUNDUP
NATIONAL WEATHER SERVICE CHICAGO/ROMEOVILLE IL
600 AM CDT SUN APR 20 2014

NOTE: "FAIR" INDICATES FEW OR NO CLOUDS BELOW 12,000 FEET WITH NO
SIGNIFICANT WEATHER AND/OR OBSTRUCTIONS TO VISIBILITY.

* THESE STATIONS ARE NOT UNDER NWS QUALITY CONTROL. THEY ALSO MAY NOT
  REPORT WEATHER SUCH AS PRECIPITATION OR FOG.

ILZ001-002-007-009-015-016-024-201200-
NORTHWEST ILLINOIS

CITY           SKY/WX    TMP DP  RH WIND       PRES   REMARKS
MOLINE         PTCLDY    51  36  56 S6        30.15S
STERLING*      MOCLDY    48  37  66 SE8       30.18S
SAVANNA*       MOCLDY    47  38  69 CALM      30.16S
$$

ILZ003-004-008-010-011-017-018-201200-
NORTH CENTRAL ILLINOIS

CITY           SKY/WX    TMP DP  RH WIND       PRES   REMARKS
ROCKFORD       MOCLDY    47  36  65 S10       30.21S
FREEPORT*      MOCLDY    51  41  67 S12       30.19R
ROCHELLE*      PTCLDY    44  36  72 S6        30.21R
DE KALB*       PTCLDY    41  33  73 S9        30.21S
PERU*          PTCLDY    47  38  69 CALM      30.21R
$$

ILZ005-006-012>014-019>023-201200-
NORTHEAST ILLINOIS

CITY           SKY/WX    TMP DP  RH WIND       PRES   REMARKS
CHICAGO-OHARE  PTCLDY    44  28  53 S7        30.21S
CHICAGO-MIDWAY PTCLDY    47  27  45 S7        30.22R
AURORA         PTCLDY    43  32  65 SE7       30.22R
LANSING*       PTCLDY    44  25  47 S6        30.23S
WAUKEGAN       PTCLDY    39  34  82 S3        30.20R
DUPAGE AIRPORT PTCLDY    42  32  67 S6        30.21R
KANKAKEE*      CLEAR     41  32  70 E5        30.24R
WHEELING       PTCLDY    45  31  58 S7        30.22R
MORRIS*        PTCLDY    43  31  63 CALM      30.22R
ROMEOVILLE*    PTCLDY    43  28  55 S12       30.22S
NORTHERLY ISL    N/A     47  26  44 S8          N/A
$$

LMZ740>746-201200-
SOUTHERN LAKE MICHIGAN

STATION/POSITION SKY/WX   TEMP    WIND        PRES    VSBY  WAVE
                          AIR SEA DIR/SP/G                  HT/PER
                          (F)     (DEG/KT/KT) (MB)    (MI)  (FT/S)
WAUKEGAN HARBOR            43     180/  7/  8 1024.0S
HARRISON CRIB              45     170/ 13/ 14   N/A
BURNHAM HARBOR             47     180/  5/  9   N/A
CALUMET HARBOR             47     160/  6/  7 1023.9S
MICHIGAN CITY              45     130/ 14/ 17   N/A
$$

ILZ025>027-034>036-040-047-049-050-058-095>099-201200-
WEST-CENTRAL ILLINOIS

CITY           SKY/WX    TMP DP  RH WIND       PRES   REMARKS
QUINCY         MOCLDY    58  39  49 S7        30.16S
GALESBURG*     CLEAR     50  39  65 SE5       30.17S
MACOMB*        PTCLDY    49  39  67 S9        30.19S
JACKSONVILLE*  MOCLDY    52  38  58 SE5       30.19F
PITTSFIELD*    MOCLDY    54  41  62 S3        30.18S
$$

ILZ028>032-037-038-041>044-048-051>054-059>061-201200-
CENTRAL ILLINOIS

CITY           SKY/WX    TMP DP  RH WIND       PRES   REMARKS
PONTIAC        PTCLDY    43  37  81 SE6       30.21S
BLOOMINGTON    MOCLDY    47  36  65 S13       30.22R
DECATUR        MOCLDY    42  37  82 SE3       30.22S
PEORIA         PTCLDY    51  37  58 S6        30.20R
LACON*         PTCLDY    45  38  76 SE3       30.19S
LINCOLN*       MOCLDY    47  39  73 SE3       30.21R
SPRINGFIELD    MOCLDY    54  39  57 S9        30.20R
TAYLORVILLE    MOCLDY    52  37  58 SE8       30.20S
$$

ILZ033-039-045-046-055>057-062-063-201200-
EAST-CENTRAL ILLINOIS

CITY           SKY/WX    TMP DP  RH WIND       PRES   REMARKS
CHAMPAIGN      PTCLDY    41  36  82 E8        30.22S
RANTOUL*       CLEAR     45  37  72 CALM      30.23S
MATTOON        PTCLDY    50  37  61 SE7       30.22R
PARIS*         CLEAR     45  37  75 CALM      30.25R
$$

ILZ079-100>102-201200-
SOUTHWEST ILLINOIS

CITY           SKY/WX    TMP DP  RH WIND       PRES   REMARKS
ALTON          PTCLDY    46  43  88 CALM      30.21R
BELLEVILLE     CLEAR     45  43  93 CALM      30.20R
CAHOKIA*       PTCLDY    46  43  89 CALM      30.20R
SPARTA*        CLEAR     46  43  87 CALM      30.21S
$$

ILZ064>066-069>071-074>076-080>082-084>086-088>090-092>094-201200-
SOUTH-CENTRAL ILLINOIS

CITY           SKY/WX    TMP DP  RH WIND       PRES   REMARKS
CARBONDALE     CLEAR     46  44  93 CALM      30.20R
CAIRO*         CLEAR     51  45  79 CALM      30.20R
MARION         CLEAR     46  43  87 CALM      30.21R
MT. VERNON     CLEAR     45  32  61 NE3       30.22R
CENTRALIA*       N/A     49  38  66 CALM      30.21R
SALEM*         CLEAR     54  41  61 E5        30.21S
METROPOLIS*    CLEAR     47  41  79 CALM      30.20R
$$

ILZ067-068-072-073-078-083-087-091-201200-
SOUTHEAST ILLINOIS

CITY           SKY/WX    TMP DP  RH WIND       PRES   REMARKS
FAIRFIELD*     CLEAR     54  43  66 CALM      30.22R
HARRISBURG*    CLEAR     46  41  83 CALM      30.23R
ROBINSON*      CLEAR     44  41  90 CALM      30.24S
CARMI*         CLEAR     47  46  93 CALM      30.22R
$$

ABBREVIATIONS USED IN REMARKS
   TC - TEMPERATURE IN CELSIUS
  WCI - WIND CHILL INDEX
   HX - HEAT INDEX
  VSB - VISIBILITY
$$




USA.gov is the U.S. government's official web portal to all federal, state and local government web resources and services.